Вернуться в каталог

BREEZE-M DEB

АктивенHEO
NORAD 38565·DEBRIS·🇷🇺 Russia

Запущен Mar 14, 2008 с Baikonur Cosmodrome

Loading…

Ближайшие Пролёты (ближайшие 24 часа)

TLE

СвежийSource: Space-Track

Эпоха: Sep 14, 2026, 09:43 UTC

1 38565U 08011L   26257.40505714  .00000046  00000-0  97668-3 0  9994
2 38565  49.1651 208.0873 6476804 359.2486   0.0093  3.10981524186678

Отслеживайте BREEZE-M DEB в реальном времени с AllMySat

Download on the App Store